This is the latest recevied weather packets stored in our database for station/object OM7ABC-15. If no packets are shown the sender has not sent any weather packets the latest 10 day(s).
| Time | Temp. | Humidity | Pressure | Rain* | Wind** | Luminosity | Snow |
|---|---|---|---|---|---|---|---|
| 1777557271 | 21.67° C | 33% | 991.3 hPa | - | - | - | - |
| 1777556371 | 21.67° C | 33% | 991.5 hPa | - | - | - | - |
| 1777555471 | 21.67° C | 35% | 991.6 hPa | - | - | - | - |
| 1777554571 | 21.67° C | 35% | 991.6 hPa | - | - | - | - |
| 1777553671 | 21.67° C | 34% | 991.7 hPa | - | - | - | - |
| 1777552771 | 21.67° C | 34% | 992 hPa | - | - | - | - |
| 1777551870 | 21.67° C | 33% | 992.3 hPa | - | - | - | - |
| 1777550970 | 21.67° C | 34% | 992.4 hPa | - | - | - | - |
| 1777550070 | 21.67° C | 34% | 992.6 hPa | - | - | - | - |
| 1777549170 | 21.67° C | 34% | 992.9 hPa | - | - | - | - |
| 1777548270 | 21.67° C | 33% | 993.1 hPa | - | - | - | - |
| 1777547370 | 21.11° C | 33% | 993.2 hPa | - | - | - | - |
| 1777546469 | 21.11° C | 32% | 993.3 hPa | - | - | - | - |
| 1777545577 | 21.11° C | 32% | 993.5 hPa | - | - | - | - |
| 1777544677 | 21.11° C | 31% | 993.7 hPa | - | - | - | - |
| 1777543777 | 21.11° C | 30% | 993.8 hPa | - | - | - | - |
| 1777542877 | 21.11° C | 28% | 994.1 hPa | - | - | - | - |
| 1777541977 | 21.11° C | 25% | 994.1 hPa | - | - | - | - |
| 1777541077 | 21.11° C | 24% | 994.2 hPa | - | - | - | - |
| 1777540176 | 21.11° C | 28% | 994.2 hPa | - | - | - | - |
| 1777539277 | 21.67° C | 34% | 994.3 hPa | - | - | - | - |
| 1777538376 | 21.67° C | 38% | 994.5 hPa | - | - | - | - |
| 1777537476 | 21.67° C | 40% | 994.4 hPa | - | - | - | - |
| 1777536576 | 21.67° C | 42% | 994.6 hPa | - | - | - | - |
| 1777535676 | 21.67° C | 42% | 994.8 hPa | - | - | - | - |
* Rain since midnight (hover to see other rain measurements)
** Current wind speed in m/s (hover to see current wind gust speed)